Preview of NWS' New Version of Forecast
This preview is not operational and should not be used for support decisions.

Regional Weather Roundup (RWR)

Issued by National Weather Service (NWS)

                            
000
ASUS45 KCYS 240510
RWRWY 

WYOMING REGIONAL WEATHER ROUNDUP
NATIONAL WEATHER SERVICE CHEYENNE WY
1100 PM MDT SUN JUN 23 2019

NOTE:  "FAIR" INDICATES FEW OR NO CLOUDS BELOW 12,000 FEET
WITH NO SIGNIFICANT WEATHER AND/OR OBSTRUCTIONS TO VISIBILITY.

WYZ001-240600-
...YELLOWSTONE NATIONAL PARK...
  
CITY           SKY/WX    TMP DP  RH WIND       PRES   REMARKS
LK YELLOWSTONE   N/A     41  38  89 CALM      30.07F                  
W YELLOWSTONE  NOT AVBL                                               

$$
WYZ002>013-054>058-071-098>099-240600-
...NORTHERN WYOMING...
  
CITY           SKY/WX    TMP DP  RH WIND       PRES   REMARKS
JACKSON        MOCLDY    51  38  60 SW7       30.03S                  
CODY           CLOUDY    57  39  51 CALM      29.93F                  
GREYBULL       CLOUDY    64  41  42 SE3       29.87F                  
WORLAND        CLOUDY    62  41  46 NE6       29.88F                  
SHERIDAN       CLOUDY    56  49  77 CALM      29.88F                  
BUFFALO        MOCLDY    55  44  66 S5        29.94F                  
GILLETTE       CLOUDY    51  48  89 S6        29.90F                  
HULETT         LGT RAIN  57  46  67 CALM      29.93R                  
NEWCASTLE      MOCLDY    48  43  81 SW8G20    29.97R                  

$$
WYZ014>020-022>026-101>103-240600-
...CENTRAL WYOMING...
  
CITY           SKY/WX    TMP DP  RH WIND       PRES   REMARKS
BIG PINEY      CLOUDY    48  36  63 CALM      30.10S                  
PINEDALE       CLOUDY    50  36  57 CALM      30.11S                  
DUBOIS         LGT RAIN  50  36  57 NW3       30.04F                  
LANDER         CLOUDY    60  33  36 W12       29.98S                  
RIVERTON       CLOUDY    59  37  44 SW6       29.97F                  
CASPER         MOCLDY    55  44  66 SW10      29.95F                  
DOUGLAS        MOCLDY    52  46  80 SE6       29.94F                  

$$
WYZ021-027>030-104>119-240600-
...SOUTHERN WYOMING...
  
CITY           SKY/WX    TMP DP  RH WIND       PRES   REMARKS
EVANSTON       PTCLDY    50  30  46 SW12      30.12F                  
KEMMERER       NOT AVBL                                               
FORT BRIDGER   NOT AVBL                                               
ROCK SPRINGS   MOCLDY    50  29  44 S9        30.11S                  
DIXON          CLOUDY    54  37  53 S8G17     30.15S                  
RAWLINS        MOCLDY    55  34  45 W12       30.08S                  
SARATOGA       CLOUDY    50  36  57 SW9       30.11F                  
LARAMIE        CLOUDY    46  38  73 SW8       30.09S                  
CHEYENNE         N/A    N/A N/A N/A MISG        N/A                   
TORRINGTON     CLEAR     53  45  74 CALM      29.94F                  
PINE BLUFFS    MOCLDY    52  45  76 SW5       30.04R                  

$$